Regional Weather Roundup
Issued by NWS Binghamton, NY

Home | Current Version | Previous Version | Text Only | Print | Product List | Glossary On
Versions: 1 2 3 4 5 6 7 8 9 10 11 12 13 14 15 16 17 18 19 20 21 22 23 24 25 26 27 28 29 30 31 32 33 34 35 36 37 38 39 40 41 42 43 44 45 46 47 48 49 50
000
ASUS41 KBGM 281810
RWRBGM
RWRBGM
BINGHAMTON REGIONAL WEATHER ROUNDUP
NATIONAL WEATHER SERVICE BINGHAMTON NY
200 PM EDT TUE JUL 28 2015

Note: "fair" indicates few or no clouds below 12,000 feet with no
significant weather and/or obstructions to visibility.

* = Station(s) that does not report precipitation, such as rain,
snow, etc, also no thunder or fog.

!NYZ009-015>018-022>025-036-037-044>046-055>057-062-281900
...CENTRAL NEW YORK...

CITY           SKY/WX    TMP DP  RH WIND       PRES   REMARKS
BINGHAMTON     MOSUNNY   82  63  52 NW8       30.05F
CORTLAND       FAIR      84  63  48 W7        30.06R HX  85
DANSVILLE      SUNNY     87  62  43 N7        30.03S HX  87
ELMIRA         SUNNY     87  62  43 VRB3      30.01F HX  87
ITHACA         MOSUNNY   86  63  45 NW7       30.05F HX  87
HORNELL          N/A     84  57  39 W6        30.08R
MONTICELLO     MOSUNNY   84  61  45 N3        30.04F
NORWICH        PTSUNNY   84  63  48 NW5       30.02F HX  85
PENN YAN       SUNNY     87  64  46 N5        30.03F HX  88
ROME           SUNNY     86  66  51 W8        30.00F HX  88
SIDNEY         PTSUNNY   84  70  61 CALM      30.02S HX  88
SYRACUSE       MOSUNNY   87  66  49 W10       29.99S HX  89
$$

!PAZ038>040-043-044-047-048-072-281900
...NORTHEAST PENNSYLVANIA...

CITY           SKY/WX    TMP DP  RH WIND       PRES   REMARKS
HAZLETON       SUNNY     82  63  51 NW6       30.08F
SCRANTON       MOSUNNY   87  64  46 CALM      30.02F HX  88
$$
&&
KEY
WCI = WIND CHILL INDEX
VSB = VISIBILITY
HX  = HEAT INDEX
$$



USA.gov is the U.S. government's official web portal to all federal, state and local government web resources and services.